Flag for US Virgin Islands Weather past 2 weeks in Christiansted, US Virgin Islands

Now
81 °F

Passing clouds.


Feels Like: 86 °F
Forecast: 77 / 82 °F
Wind: 6 mph from Southeast

Location: Christiansted / Henry E. Rohlsen Airport - Saint Croix

Current Time: Apr 27, 2015 at 8:56:14 PM

Latest Report: Apr 27, 2015 at 7:53 PM


Visibility: 10 mi

Pressure: 29.96 "Hg

Humidity: 79%

Dew point: 74 °F

Location of ChristianstedLocation

Historic Weather in Christiansted — Graph

°F

Christiansted temperature yesterday

Maximum temperature yesterday: 87 °F (at 12:53 PM)
Minimum temperature yesterday: 79 °F (at 12:53 AM)
Average temperature yesterday: 82 °F

Past Weeks' High & Low Weather Summary

 TemperatureHumidityPressure
High87 °F (Apr 25, 12:53 PM)94% (Apr 18, 12:43 AM)30.09 "Hg (Apr 18, 12:43 AM)
Low72 °F (Apr 25, 12:53 AM)50% (Apr 21, 1:53 PM)29.90 "Hg (Apr 27, 3:53 PM)
Average80 °F76%29.98 "Hg
* Reported Apr 12 6:53 PM — Apr 27 6:53 PM, Christiansted, Weather by CustomWeather, © 2015

Note: Actual official high and low records may vary slightly from our data, if they occured in-between our weather recording intervals... More about our weather records

Advertising

Christiansted weather history for previous 24 hours

 ConditionsComfort  
Time TempWeatherWind HumidityBarometerVisibility
6:53 PM
Mon, Apr 27
81 °FClear.8 mph79%29.93 "Hg10 mi
5:53 PM83 °FPassing clouds.8 mph74%29.91 "Hg10 mi
4:53 PM84 °FScattered clouds.9 mph72%29.91 "Hg10 mi
3:53 PM85 °FScattered clouds.13 mph70%29.90 "Hg10 mi
2:53 PM87 °FScattered clouds.13 mph67%29.91 "Hg10 mi
1:53 PM87 °FScattered clouds.13 mph67%29.93 "Hg10 mi
12:53 PM87 °FScattered clouds.13 mph67%29.95 "Hg10 mi
11:53 AM87 °FScattered clouds.14 mph67%29.97 "Hg10 mi
10:53 AM86 °FPassing clouds.13 mph70%29.98 "Hg10 mi
9:53 AM86 °FScattered clouds.12 mph67%29.99 "Hg10 mi
8:53 AM84 °FScattered clouds.12 mph72%29.99 "Hg10 mi
7:53 AM82 °FScattered clouds.9 mph77%29.98 "Hg10 mi
6:53 AM80 °FScattered clouds.8 mph79%29.95 "Hg10 mi
5:53 AM79 °FPassing clouds.6 mph82%29.94 "Hg10 mi
4:53 AM79 °FPassing clouds.6 mph79%29.93 "Hg10 mi
3:53 AM79 °FClear.8 mph82%29.91 "Hg10 mi
2:53 AM79 °FPassing clouds.6 mph82%29.91 "Hg10 mi
2:01 AM79 °FPassing clouds.6 mph82%29.93 "Hg10 mi
1:53 AM79 °FPassing clouds.6 mph82%29.93 "Hg10 mi
12:53 AM79 °FClear.6 mph79%29.95 "Hg10 mi
11:53 PM
Sun, Apr 26
79 °FClear.3 mph79%29.96 "Hg10 mi
10:53 PM79 °FPassing clouds.6 mph82%29.98 "Hg10 mi
9:53 PM80 °FPassing clouds.5 mph79%29.98 "Hg10 mi
8:53 PM80 °FPartly cloudy.5 mph79%29.97 "Hg10 mi
Weather by CustomWeather, © 2015

See weather overviewHow to use our weather pages